KE9LZ Weather Reports


Display with metric or nautical units.
time (UTC)temp
F
wind
direction
speed
MPH
gust
MPH
rain 1hr
in
rain 24hr
in
rain mn
in
humidity
%
barometer
mb
20260506141002 45 111 6.0 8.0 0.00 0.00 0.00 62 1019.2
20260506135002 44 78 3.0 9.0 0.00 0.00 0.00 64 1019.1
20260506134002 44 84 4.0 7.0 0.00 0.00 0.00 69 1019.0
20260506133002 42 148 3.0 7.0 0.00 0.00 0.00 73 1018.9
20260506132003 41 63 3.0 5.0 0.00 0.00 0.00 74 1019.0
20260506131002 41 85 4.0 8.0 0.00 0.00 0.00 75 1018.9
20260506130003 40 40 5.0 7.0 0.00 0.00 0.00 75 1018.9
20260506125002 39 57 5.0 6.0 0.00 0.00 0.00 79 1018.8
20260506124003 39 9 3.0 6.0 0.00 0.00 0.00 80 1018.6
20260506123003 38 92 4.0 6.0 0.00 0.00 0.00 82 1018.4
20260506122003 38 73 3.0 5.0 0.00 0.00 0.00 83 1018.3
20260506121003 37 82 2.0 5.0 0.00 0.00 0.00 85 1018.2
20260506115003 36 80 2.0 7.0 0.00 0.00 0.00 88 1018.4
20260506113002 34 53 3.0 5.0 0.00 0.00 0.00 91 1018.1
20260506112003 34 278 2.0 6.0 0.00 0.00 0.00 92 1018.0
20260506111003 33 239 2.0 5.0 0.00 0.00 0.00 93 1017.6
20260506110002 33 17 2.0 6.0 0.00 0.00 0.00 93 1017.5
20260506104003 32 94 2.0 3.0 0.00 0.00 0.00 94 1017.4
20260506103003 32 96 2.0 3.0 0.00 0.00 0.00 93 1017.3
20260506102002 32 99 2.0 3.0 0.00 0.00 0.00 93 1017.3
20260506101003 32 139 2.0 2.0 0.00 0.00 0.00 93 1017.3
20260506095003 33 104 2.0 2.0 0.00 0.00 0.00 91 1017.3
20260506094002 33 76 1.0 2.0 0.00 0.00 0.00 91 1017.1
20260506093002 34 62 1.0 2.0 0.00 0.00 0.00 90 1017.2
20260506092003 34 80 2.0 3.0 0.00 0.00 0.00 90 1017.3
20260506091003 34 77 2.0 3.0 0.00 0.00 0.00 90 1017.3
20260506090003 34 78 2.0 3.0 0.00 0.00 0.00 89 1017.4
20260506085002 35 85 2.0 3.0 0.00 0.00 0.00 88 1017.4
20260506084002 35 81 2.0 5.0 0.00 0.00 0.00 87 1017.1
20260506083003 36 87 3.0 5.0 0.00 0.00 0.00 86 1017.1
20260506082003 36 80 5.0 5.0 0.00 0.00 0.00 86 1017.0
20260506081003 36 91 3.0 5.0 0.00 0.00 0.00 85 1016.8
20260506073002 37 34 1.0 3.0 0.00 0.00 0.00 82 1016.8
20260506072003 37 58 2.0 5.0 0.00 0.00 0.00 81 1016.5
20260506071003 37 96 5.0 6.0 0.00 0.00 0.00 80 1016.2
20260506062003 36 77 5.0 7.0 0.00 0.00 0.00 74 1016.3
20260506061002 36 98 1.0 2.0 0.00 0.00 0.00 73 1016.2
20260506051002 38 116 2.0 3.0 0.00 0.00 0.00 68 1016.1
20260506045003 39 125 2.0 3.0 0.00 0.00 0.00 62 1016.1
20260506043003 39 120 2.0 2.0 0.00 0.00 0.00 62 1016.0
20260506042002 40 109 1.0 2.0 0.00 0.00 0.00 59 1015.9
20260506041003 41 94 2.0 2.0 0.00 0.00 0.00 58 1016.0
20260506040003 41 83 2.0 2.0 0.00 0.00 0.00 56 1015.8
20260506035003 43 118 1.0 3.0 0.00 0.00 0.00 54 1016.1
20260506034002 43 74 2.0 3.0 0.00 0.00 0.00 52 1016.1
20260506033003 44 54 1.0 3.0 0.00 0.00 0.00 51 1015.9
20260506032003 43 59 1.0 3.0 0.00 0.00 0.00 51 1015.8
20260506031003 44 320 2.0 2.0 0.00 0.00 0.00 50 1015.8
20260506030002 44 248 1.0 5.0 0.00 0.00 0.00 49 1015.7
20260506025002 44 296 2.0 3.0 0.00 0.00 0.00 49 1015.6
20260506024003 45 40 2.0 3.0 0.00 0.00 0.00 48 1015.6
20260506023003 45 43 2.0 7.0 0.00 0.00 0.00 47 1015.5
20260506022003 46 295 3.0 8.0 0.00 0.00 0.00 46 1015.3
20260506021003 46 314 3.0 8.0 0.00 0.00 0.00 47 1015.2
20260506020003 46 310 5.0 10.0 0.00 0.00 0.00 44 1015.2
20260506015003 46 334 4.0 10.0 0.00 0.00 0.00 45 1015.0
20260506014003 47 3 6.0 14.0 0.00 0.00 0.00 45 1014.9
20260506013003 46 295 4.0 12.0 0.00 0.00 0.00 44 1014.7
20260506011002 47 341 6.0 17.0 0.00 0.00 0.00 42 1014.4
20260506010002 47 316 3.0 20.0 0.00 0.00 0.00 42 1014.6
20260506005003 48 321 6.0 17.0 0.00 0.00 0.00 41 1014.4
20260506004003 48 297 8.0 25.0 0.00 0.00 0.00 40 1014.5
20260506003004 48 294 13.0 24.0 0.00 0.00 0.00 39 1014.3
20260506002003 49 301 9.0 22.0 0.00 0.00 0.00 39 1014.2
20260506001002 49 319 6.0 29.0 0.00 0.00 0.00 39 1014.3
20260506000002 50 305 12.0 29.0 0.00 0.00 0.00 38 1014.1
20260505235003 50 303 7.0 23.0 0.00 0.00 0.00 38 1014.1
20260505234003 50 320 12.0 23.0 0.00 0.00 0.00 38 1014.2
20260505233003 50 319 11.0 28.0 0.00 0.00 0.00 37 1014.2
20260505232003 51 299 14.0 20.0 0.00 0.00 0.00 37 1014.3
20260505230002 51 289 14.0 30.0 0.00 0.00 0.00 37 1014.1
20260505225003 52 273 14.0 26.0 0.00 0.00 0.00 36 1013.7
20260505224003 51 286 9.0 28.0 0.00 0.00 0.00 36 1013.7
20260505223003 52 303 14.0 28.0 0.00 0.00 0.00 36 1013.7
20260505221003 52 319 14.0 28.0 0.00 0.00 0.00 36 1013.5
20260505220003 52 292 19.0 28.0 0.00 0.00 0.00 36 1013.5
20260505215003 53 275 11.0 25.0 0.00 0.00 0.00 34 1013.5
20260505214003 52 299 16.0 29.0 0.00 0.00 0.00 34 1013.7
20260505213002 53 300 13.0 23.0 0.00 0.00 0.00 37 1013.4
20260505212004 52 299 11.0 26.0 0.00 0.00 0.00 37 1013.3
20260505211003 51 280 10.0 25.0 0.00 0.00 0.00 36 1013.3
20260505210003 54 274 10.0 24.0 0.00 0.00 0.00 36 1013.1
20260505205003 52 278 10.0 29.0 0.00 0.00 0.00 36 1013.0
20260505204002 53 297 13.0 25.0 0.00 0.00 0.00 38 1013.3
20260505203003 52 247 10.0 23.0 0.00 0.00 0.00 37 1013.1
20260505202004 55 240 7.0 24.0 0.00 0.00 0.00 34 1013.3
20260505200003 53 259 8.0 23.0 0.00 0.00 0.00 37 1013.2
20260505195003 52 286 11.0 30.0 0.00 0.00 0.00 37 1013.3
20260505194003 53 297 15.0 30.0 0.00 0.00 0.00 39 1013.0
20260505193003 53 275 8.0 23.0 0.00 0.00 0.00 38 1012.8
20260505192003 52 290 10.0 28.0 0.00 0.00 0.00 38 1012.8
20260505191002 53 281 11.0 22.0 0.00 0.00 0.00 37 1012.7
20260505190003 54 257 5.0 23.0 0.00 0.00 0.00 37 1012.6
20260505185003 54 287 9.0 21.0 0.00 0.00 0.00 36 1012.8
20260505184002 53 279 15.0 22.0 0.00 0.00 0.00 36 1012.7
20260505183004 54 282 12.0 30.0 0.00 0.00 0.00 34 1012.3
20260505182003 52 299 13.0 26.0 0.00 0.00 0.00 36 1012.5
20260505180003 54 234 8.0 16.0 0.00 0.00 0.00 34 1012.3
20260505175003 53 232 9.0 24.0 0.00 0.00 0.00 34 1012.4
20260505174003 52 264 10.0 21.0 0.00 0.00 0.00 36 1012.3
20260505172003 52 262 9.0 22.0 0.00 0.00 0.00 40 1012.4
20260505171003 51 290 12.0 21.0 0.00 0.00 0.00 38 1012.1
20260505170003 51 223 5.0 15.0 0.00 0.00 0.00 43 1012.0
20260505165002 50 269 9.0 23.0 0.00 0.00 0.00 44 1011.9
20260505164003 51 286 7.0 20.0 0.00 0.00 0.00 43 1011.9
20260505163003 50 242 6.0 23.0 0.00 0.00 0.00 44 1012.0
20260505162002 50 220 6.0 25.0 0.00 0.00 0.00 44 1012.0
20260505161003 50 292 10.0 21.0 0.00 0.00 0.00 45 1011.8
20260505153003 49 284 9.0 20.0 0.00 0.00 0.00 46 1011.8
20260505152002 50 266 9.0 21.0 0.00 0.00 0.00 46 1012.0
20260505151003 49 318 6.0 23.0 0.00 0.00 0.00 46 1012.1